Current Version              Previous Version:    01  02  03  04  05  06  07  08  09  10  11  12  13  14  15  16  17  18  19  20  21  22  23  24  25  26  27  28  29  30  
   31  32  33  34  35  36  37  38  39  40  41  42  43  44  45  46  47  48  49  50  51  52  53  54  55  56  57  58  59  60  

[Printable]
300
ASUS44 KFWD 230410
RWRTX
NORTH TEXAS HOURLY WEATHER ROUNDUP
NATIONAL WEATHER SERVICE FORT WORTH TX
1100 PM CDT WED OCT 22 2014

NOTE: "FAIR" INDICATES FEW OR NO CLOUDS BELOW 12,000 FEET WITH NO
SIGNIFICANT WEATHER AND/OR OBSTRUCTIONS TO VISIBILITY.

TXZ118-119-230500-
DALLAS/FORT WORTH METROPLEX

CITY           SKY/WX    TMP DP  RH WIND       PRES   REMARKS
DFW AIRPORT    CLOUDY    70  55  59 SE6       30.11S
DALLAS LOVE    CLOUDY    71  54  54 SE10      30.11S
FTW MEACHAM    CLOUDY    72  57  59 SE9       30.10S
DAL-EXECUTIVE  CLOUDY    69  55  60 E3        30.12R
FTW-ALLIANCE   CLOUDY    71  55  56 SE9       30.10F
FTW-NAS-JRB    CLOUDY    78  55  44 SE8       30.14S
FTW-SPINKS     CLOUDY    67  58  71 SE3       30.13S
ARLINGTON      CLOUDY    71  55  56 E7        30.11S
GRAND PRAIRIE  CLOUDY    71  56  60 E6        30.13S
ADDISON        CLOUDY    72  57  59 SE7       30.13S
MESQUITE       CLOUDY    69  52  55 E6        30.12S
LANCASTER      CLOUDY    67  54  62 CALM      30.13S
$$

TXZ091>094-102>105-117-120-121-131>134-230500-
NORTH CENTRAL TEXAS

CITY           SKY/WX    TMP DP  RH WIND       PRES   REMARKS
SHRMAN/DENISON CLOUDY    68  58  70 E9        30.13S
GAINESVILLE    CLOUDY    69  56  64 SE7       30.13F
BOWIE          CLOUDY    68  59  73 CALM      30.12R
BRIDGEPORT     CLOUDY    69  60  74 SE6       30.12S
DECATUR        CLOUDY    67  58  71 SE6       30.11F
DENTON         CLOUDY    70  57  63 SE7       30.10F
MCKINNEY       CLOUDY    67  55  65 E5        30.12S
GREENVILLE     CLOUDY    64  52  63 E6        30.13F
ROCKWALL       CLOUDY    67  53  60 SE6       30.12S
TERRELL        CLOUDY    69  54  58 E8        30.12F
WAXAHACHIE     CLOUDY    67  57  69 CALM      30.14R
CLEBURNE       CLOUDY    70  57  64 SE8       30.13S
GRANBURY       CLOUDY    72  59  65 SE5       30.12S
$$

TXZ083>090-098>101-113>116-127>130-139>142-154-155-230500-
WESTERN NORTH TEXAS

CITY           SKY/WX    TMP DP  RH WIND       PRES   REMARKS
WICHITA FALLS  CLOUDY    65  62  90 MISG      30.11S
WF-KICKAPOO    DRIZZLE   66  60  80 N5        30.12F
VERNON         CLOUDY    63  61  94 CALM      30.12S
ABILENE        CLEAR     63  55  75 SE8       30.12F
ABILENE-DYESS  PTCLDY    61  57  88 S5        30.11F
BRECKENRIDGE   CLOUDY    68  60  74 SE6       30.11S
GRAHAM         CLOUDY    67  62  84 CALM      30.10S
MINERAL WELLS  CLOUDY    68  60  75 SE5       30.10R
STEPHENVILLE   CLOUDY    69  57  65 SE7       30.14S
COMANCHE       CLOUDY    68  60  74 SE5       30.11F
BROWNWOOD      CLOUDY    66  59  77 SE5       30.12S
COLEMAN        CLOUDY    65  60  85 CALM      30.12S
BRADY          CLEAR     68  52  56 CALM      30.12S
$$

TXZ143>147-156>162-174-175-230500-
CENTRAL TEXAS

CITY           SKY/WX    TMP DP  RH WIND       PRES   REMARKS
WACO           CLOUDY    67  58  72 E5        30.11S
WACO-TSTC      CLEAR     68  57  68 CALM      30.11S
WACO-MCGREGOR  CLOUDY    70  54  56 E7        30.12S
HILLSBORO      CLOUDY    70  54  56 E8        30.12S
CORSICANA      CLOUDY    67  56  67 E8        30.13S
MEXIA          CLOUDY    65  57  75 E3        30.11S
HEARNE         CLOUDY    68  58  70 CALM      30.11F
CAMERON        CLOUDY    68  59  73 SE3       30.11S
TEMPLE         CLOUDY    70  54  56 E7        30.10S
KILLEEN        MOCLDY    72  59  64 E7        30.10F
KILLEEN-SKYLRK CLOUDY    72  55  56 E6        30.10F
FORT HOOD      CLOUDY    72  60  66 E3        30.10F
GATESVILLE     CLOUDY    68  61  77 E3        30.12F
HAMILTON       CLOUDY    70  57  64 SE8       30.12F
LAMPASAS       CLOUDY    71  63  77 CALM      30.11S
$$

TXZ095>097-106>112-122>126-135>138-148>153-164>167-230500-
EAST TEXAS

CITY           SKY/WX    TMP DP  RH WIND       PRES   REMARKS
PARIS          CLOUDY    63  48  59 E8        30.15F
SULPHUR SPRNGS CLOUDY    62  53  73 E5        30.17S
MOUNT PLEASANT CLOUDY    61  52  72 E5        30.16F
MINEOLA        CLOUDY    59  55  88 CALM      30.15S
TYLER          MOCLDY    64  52  64 E7        30.13R
LONGVIEW       PTCLDY    60  53  77 E5        30.13F
MARSHALL       CLEAR     60  55  84 CALM      30.16F
ATHENS         CLOUDY    63  55  77 CALM      30.13R
PALESTINE      MOCLDY    65  56  72 NE3       30.14R
JACKSONVILLE   MOCLDY    63  54  72 E3        30.15S
HENDERSON      PTCLDY    62  53  72 E3        30.14F
NACOGDOCHES    CLEAR     57  52  82 E6        30.13F
LUFKIN         CLEAR     62  54  74 NE6       30.12S
$$

SUPPLEMENTAL OBSERVATIONS (CENTRAL)

CITY           SKY/WX    TMP DP  RH WIND       PRES   REMARKS
PAT MAYSE LAKE   N/A     64  52  63 E8          N/A
PALESTINE        N/A     57  55  94 CALM        N/A
MCGREGOR         N/A     70  57  64 E3          N/A
TEMPLE           N/A     70  55  60 E8          N/A
$$

SUPPLEMENTAL OBSERVATIONS (WEST)

CITY           SKY/WX    TMP DP  RH WIND       PRES   REMARKS
MILLERS CREEK    N/A     63  55  77 NE2         N/A
POSSUM KINGDOM   N/A     70  57  64 SE5         N/A
GRANBURY         N/A     72  57  60 SE5         N/A
HAMBY            N/A     61  54  77 SE2         N/A
IVIE RESERVOIR   N/A     64  55  72 CALM        N/A
COLORADO BEND    N/A     70  57  64 SE3         N/A
$$

SUPPLEMENTAL OBSERVATIONS (EAST)

CITY           SKY/WX    TMP DP  RH WIND       PRES   REMARKS
CLARKSVILLE      N/A     61  52  72 E3          N/A
TEXARKANA        N/A     55  52  88 CALM        N/A
LINDEN           N/A     55  52  88 E1          N/A
GILMER           N/A     61  54  77 CALM        N/A
HENDERSON        N/A     63  52  67 E6          N/A
LUFKIN           N/A     57  54  88 MISG        N/A
$$

SUPPLEMENTAL OBSERVATIONS ARE A COLLECTION OF AUTOMATED INSTRUMENTS
THAT ARE MAINTAINED BY A VARIETY OF FEDERAL AND STATE AGENCIES.
CERTAIN ELEMENTS...SUCH AS HUMIDITY VALUES AND SUSTAINED WIND
SPEEDS...MAY BE APPROXIMATED.